カタログに戻る

LEMUR-2-LUCILLE-ROSE

運用中科学SSO
NORAD 65403·PAYLOAD·🇺🇸 United States

打ち上げ Jun 23, 2025 から Vandenberg Space Force Base

Loading…

次のパス (今後24時間)

TLE

最新Source: Space-Track

元期: Sep 14, 2026, 13:45 UTC

1 65403U 25135BV  26257.57297267  .00005231  00000-0  41144-3 0  9999
2 65403  97.7654  13.7342 0012448 357.1625   2.9526 15.01227444 62042

AllMySatでLEMUR-2-LUCILLE-ROSEをリアルタイム追跡

Download on the App Store